Regional Weather Roundup
Issued by NWS Pendleton, OR

Home | Current Version | Previous Version | Text Only | Print | Product List | Glossary On
Versions: 1 2 3 4 5 6 7 8 9 10 11 12 13 14 15 16 17 18 19 20 21 22 23 24 25 26 27 28 29 30 31 32 33 34 35 36 37 38 39 40 41 42 43 44 45 46 47 48 49 50
000
ASUS46 KPDT 300925
RWRPDT
PENDLETON REGIONAL WEATHER ROUNDUP
NATIONAL WEATHER SERVICE PENDLETON OREGON
200 AM PDT TUE SEP 30 2014

NOTE: FAIR INDICATES FEW OR NO CLOUDS BELOW 12,000 FEET WITH NO
SIGNIFICANT WEATHER AND/OR OBSTRUCTIONS TO VISIBILITY.

# INDICATES UNOFFICIAL STATION AND DATA

WAZ520-301010-
EAST SLOPES OF WASHINGTON CASCADES

CITY            SKY/WX      TMP DP  RH  WIND    PRES   REMARKS
#BUMPING DAM    N/A         46  N/A N/A S2      N/A
#CLE ELUM HS    N/A         49  42  77  W5      29.89S
#CLE ELUM 2NW   N/A         48  41  77  W2      N/A
#CLE ELUM LAKE  N/A         46  41  83  CALM    29.85R
#CLIFFDEL 2NW   N/A         48  39  71  NW7G26  N/A
#GLENWOOD       N/A         51  43  74  SW7     29.92S
#MANASTASH CYN  N/A         48  37  65  CALM    29.87F
#NELSON         N/A         48  43  83  CALM    29.92S
#NELSON 3SW     N/A         45  40  82  CALM    30.10R
#NILE           N/A         51  40  66  W3      29.15S
#RONALD 2NW     N/A         49  42  77  W1      29.81S
#SNOWDEN        N/A         48  38  68  N1      N/A
#TEANAWAY 4NE   N/A         50  43  77  CALM    N/A
#TROUT LAKE 1NE N/A         50  43  77  W7      29.96R
$$

WAZ521-301010-
SIMCOE HIGHLANDS

CITY            SKY/WX      TMP DP  RH  WIND    PRES   REMARKS
#BICKLETON HS   N/A         50  28  42  W12     30.00R
#CENTERVILLE 4W N/A         52  45  77  W16     29.70S
#CENTERVILLE 1SWN/A         51  44  77  W15     29.90R
#GOLDENDALE     N/A         53  42  66  W12     N/A
#GOLDENDALE 1NE N/A         52  40  63  SW3     N/A
#GOLDENDALE 1S  N/A         50  43  77  SW2     29.93R
#GOLDENDALE 5WNWN/A         52  44  74  W12     29.91R
#GOODNOE HILLS  N/A         55  46  72  W21G29  29.88R
#LYLE 6NE       N/A         52  46  80  W10     29.91R
$$

WAZ026-301010-
KITTITAS VALLEY

CITY            SKY/WX      TMP DP  RH  WIND    PRES   REMARKS
ELLENSBURG AP   PTCLDY      54  40  59  NW21G31 29.89R
#ELLENSBURG CWU N/A         53  41  64  W10     29.82S
#ELLENSBURG 3NE N/A         51  42  71  NW12    29.90R
#ELLENSBURG     N/A         56  44  64  W7      N/A
#KITTITAS 3S    N/A         53  42  66  W9      29.85R
#THORP 6N       N/A         48  41  77  W30G43  29.84F WCI 39
$$

WAZ027-301010-
YAKIMA VALLEY

CITY            SKY/WX      TMP DP  RH  WIND    PRES   REMARKS
SUNNYSIDE AP    PTCLDY      46  41  83  NE6     29.89R
YAKIMA AIRPORT  PTCLDY      57  37  47  N7      29.89R
YAKIMA-VAGABOND PTCLDY      54  38  55  N3      29.90S
#COWICHE 1N     N/A         53  38  57  W2      30.05S
#DONALD 2NE     N/A         55  34  45  E1      30.22R
#GRANDVIEW      N/A         57  37  47  NW2     29.88R
#MABTON         N/A         56  41  57  W3      29.89R
#MOXEE 2E       N/A         53  30  41  N6      29.86R
#NACHES 2SW     N/A         51  40  66  W1      29.89R
#OUTLOOK DOT    N/A         N/A N/A N/A NW2     N/A
#SELAH 8E       N/A         53  35  50  W8      N/A
#TERRACE HTS    N/A         53  38  57  CALM    29.83R
#TOPPENISH      N/A         56  39  53  CALM    29.78R
#WAPATO 4NE     N/A         55  34  45  E1      30.22R
#W YAKIMA       N/A         55  39  55  W1      29.86R
#WHITE SWAN 5E  N/A         54  38  55  W1      29.88R
#WILEY CITY 3W  N/A         52  32  46  CALM    29.89R
$$

WAZ028-301010-
LOWER COLUMBIA BASIN...WASHINGTON

CITY            SKY/WX      TMP DP  RH  WIND    PRES   REMARKS
HANFORD         MOCLEAR     60  38  44  W10     29.85R
PASCO           MOCLDY      60  49  67  SW12    29.88R
PROSSER AWOS    N/A         54  41  61  SW6     29.92R
RICHLAND AWOS   PTCLDY      59  41  51  W7      29.88R
#BASIN CITY 5SW N/A         58  45  62  W5      29.86R
#BENTON CITY    N/A         54  41  61  N2      29.78R
#CONNELL 5N     N/A         55  45  69  W6      29.82R
#CONNELL 5NW    N/A         54  44  69  SW5     29.79R
#ELTOPIA        N/A         56  49  77  SW3     29.82R
#ELTOPIA 6NW    N/A         57  44  62  NW12    28.83R
#KENNEWICK 3S   N/A         56  47  72  W3      29.86R
#PASCO-BROADMOORN/A         60  44  55  SW2     29.77R
#PATERSON       N/A         58  45  62  W12     29.88R
#PROSSER        N/A         57  37  47  SW7     29.87R
#SAGEMOOR 2W    N/A         58  49  72  E5      29.71R
#TOUCHET 2S     N/A         61  46  58  SW15G24 29.85R
#WEST PASCO     N/A         61  46  58  CALM    29.86R
$$

WAZ029-301010-
FOOTHILLS OF THE BLUES...WASHINGTON

CITY            SKY/WX      TMP DP  RH  WIND    PRES   REMARKS
WALLA WALLA AP  CLOUDY      59  48  67  SW13    29.92R
#DAYTON SCHOOL  N/A         57  47  69  S9      29.88R
#LOWDEN 2SE     N/A         61  47  60  W17G28  29.85R
#PLEASANT VIEW 1N/A         54  52  93  S7      29.85R
#PRESCOTT       N/A         58  52  80  W1      29.83R
#SUDBURY        N/A         61  N/A N/A W13     N/A
#WHITMAN COLLEGEN/A         60  46  60  S13     29.93R
#WAITSBURG 8N   N/A         54  46  74  S8      29.82R
#WALLA WALLA 5E N/A         57  49  75  W7      N/A
#WALLA WALLA U  N/A         61  49  65  CALM    29.87R
#WHITMAN MISSIONN/A         61  48  62  SW12    29.88R
$$

WAZ030-301010-
BLUE MOUNTAINS...WASHINGTON

CITY            SKY/WX      TMP DP  RH  WIND    PRES   REMARKS
$$

ORZ009-041-WAZ024-301010-
COLUMBIA RIVER GORGE

CITY            SKY/WX      TMP DP  RH  WIND    PRES   REMARKS
HOOD RIVER AP   CLOUDY      57  48  72  CALM    30.01R
THE DALLES AP   PTCLDY      60  45  58  NW8     29.97R
#ARLINGTON AIRPON/A         56  46  69  W22     29.96S
#ARLINGTON HS   N/A         59  46  62  N7      29.83R
#MARYHILL 2W    N/A         56  50  80  E6      N/A
#MOSIER 1S      N/A         55  44  66  CALM    30.00R
#MURDOCK        N/A         61  53  75  NW15G30 29.98R
#RUFUS DOT      N/A         60  47  62  W21G29  N/A

$$

ORZ510-301010-
NORTH CENTRAL OREGON

CITY            SKY/WX      TMP DP  RH  WIND    PRES   REMARKS
#CHENOWITH 1W   N/A         51  45  80  W28     N/A
#COW CYN RST AREN/A         48  41  77  W8      N/A
#DUFUR 9E       N/A         50  42  74  W15     30.00R
#GRASS VALLEY   N/A         50  43  77  W1      N/A
#GRASS VALLEY 1SN/A         50  42  74  W13     29.97R
#KENT DOT       N/A         50  38  63  SW9     N/A
#MAUPIN SCHOOL  N/A         57  45  64  CALM    28.89R
#MORO SCHOOL    N/A         53  47  80  W9      29.99R
#SHANIKO 5WSW   N/A         46  36  68  W16     N/A    WCI 39
#SHANIKO 4NW    N/A         45  39  79  W14G24  30.01R WCI 39
#TYGH VALLEY 2NEN/A         56  46  69  CALM    29.98R
#WAPANITIA AIRPON/A         52  43  71  W7      29.97R
#WASCO AIRPORT  N/A         53  43  69  W15     N/A
#WASCO 5NE      N/A         53  45  74  N16G26  29.90R
$$

ORZ511-301010-
CENTRAL OREGON

CITY            SKY/WX      TMP DP  RH  WIND    PRES   REMARKS
BEND AIRPORT    PTCLDY      48  36  63  CALM    30.08R
MADRAS AIRPORT  MOCLDY      52  39  61  NW8     30.06R
REDMOND AIRPORT PTCLDY      49  37  63  NW10    30.05R
#BEND 6E        N/A         48  35  60  CALM    29.91S
#BEND 1SW       N/A         45  36  70  CALM    N/A
#BEND-KIM LN    N/A         48  39  71  CALM    30.03R
#CROOKED RVR RANN/A         50  41  71  W5      29.99R
#CULVER         N/A         48  39  71  S2      30.01R
#LAKE BILLY CHINN/A         51  24  34  CALM    30.10R
#POWELL BUTTE 3EN/A         50  39  66  W7      N/A
#POWELL BUTTE   N/A         48  37  65  NW3     29.70R
#PRINEVILLE 3N  N/A         47  38  71  CALM    29.97R
#WARM SPRINGS   N/A         55  41  59  CALM    30.01R


ORZ509-301010-
EAST SLOPES OF OREGON CASCADES

CITY            SKY/WX      TMP DP  RH  WIND    PRES   REMARKS
#BLUE BOX PASS  N/A         42  -8  11  SW3     N/A
#CAMP SHERMAN   N/A         48  39  71  CALM    29.96S
#LA PINE DOT    N/A         43  33  67  SW1     N/A
#LAVA BUTTE DOT N/A         41  33  73  CALM    N/A
#SISTERS AIRPOR N/A         48  44  86  N7      29.91S
#SISTERS ODOT   N/A         49  N/A N/A SE3     N/A
#SISTERS 1NW    N/A         49  38  66  N7      N/A
#SISTERS 3N     N/A         44  36  73  CALM    N/A
#SUNRIVER       N/A         43  37  79  SE1     29.89S
#SUNRIVER AP    N/A         43  36  76  SW2     29.96F
#SUTTLE LK DOT  N/A         41  41  100 W45G68  N/A    WCI 28
#TUMALO 3W      N/A         48  38  68  NW12    29.85R WCI 43
#WANOGA BUTTE D N/A         36  33  89  W8      N/A

$$

ORZ044-301010-
LOWER COLUMBIA BASIN...OREGON

CITY            SKY/WX      TMP DP  RH  WIND    PRES   REMARKS
HERMISTON       PTCLDY      59  43  55  SW18G26 29.91R
#BOARDMAN SCHOOLN/A         66  53  63  W15G24  29.90R
#BOARDMAN 8SW   N/A         57  47  69  SW15    29.91R
#ECHO 8SW       N/A         58  41  53  W7      29.90R
#IONE SCHOOL    N/A         57  41  55  SW8     29.94R
#IRRIGON 4NW    N/A         60  48  64  SW14G28 N/A
#UMATILLA SCHOOLN/A         57  50  77  N3      29.94R
#UMATILLA       N/A         59  43  55  SW12    29.88R
$$

ORZ507-301010-
NORTHERN FOOTHILLS OF THE BLUES

CITY            SKY/WX      TMP DP  RH  WIND    PRES   REMARKS
PENDLETON AIRPT MOCLDY      57  42  57  W25G35  29.91R
#ADAMS 3WNW     N/A         56  43  62  W10     29.88R
#ATHENA         N/A         57  44  62  SW2     29.91R
#CAYUSE         N/A         56  47  72  S12     29.89R
#HELIX SCHOOL   N/A         55  43  64  NW15G24 29.87R
#HELIX 3N       N/A         54  43  66  N26G35  29.90R
#HELIX 6SW      N/A         56  43  62  SW18G28 29.92
#HOLDMAN 5SE    N/A         57  44  62  W15     29.93S
#HOLDMAN 6E     N/A         56  43  62  N21G30  29.69R
#M-FREEWATER 5SEN/A         59  46  62  SW10    29.94R
#PENDLETON DNTN N/A         60  37  42  SW5     28.73S
#PDT AQUATIC CTRN/A         60  41  49  SW15    29.94R
#PENDLETON 5NE  N/A         58  44  60  CALM    29.90R
#PDT SUNRIDGE   N/A         59  43  55  W12     29.94R
#PENDLETON 7NW  N/A         59  45  60  W20G29  N/A
#PILOT ROCK     N/A         54  43  66  S8      29.98R
#TUTUILLA       N/A         56  47  72  S5      29.93R
#UMAPINE 2E     N/A         61  47  60  SW6     29.88R

$$

ORZ508-301010-
SOUTHERN FOOTHILLS OF THE BLUES

CITY            SKY/WX      TMP DP  RH  WIND    PRES   REMARKS
LEXINGTON       PTCLDY      55  43  64  SW17    29.98R
#AJAX           N/A         52  37  56  SW15    29.93R
#CONDON SCHOOL  N/A         49  43  80  CALM    29.96R
#CONDON 5W      N/A         46  40  79  W16G24  29.97R WCI 39
#FOSSIL SCHOOL  N/A         52  40  63  W5      29.99R
#HEPPNER EOC    N/A         52  44  74  W9      29.88R
#HEPPNER 4NE    N/A         49  43  80  W9      29.90R
#LEXINGTON 2SE  N/A         56  44  64  SW5     29.95R
#MIKKALO        N/A         55  40  57  W15     29.97R
#OLEX 4N        N/A         57  43  59  W22G33  29.94R
#RUGGS 5NE      N/A         49  45  86  SW9     30.14S
#RUGGS 2SW      N/A         50  42  74  W8      29.94R

$$

ORZ502-503-301010-
BLUE MOUNTAINS

CITY            SKY/WX      TMP DP  RH  WIND    PRES   REMARKS
MEACHAM         LGT RAIN    47  44  89  VRB7    29.98R
#BATTLE MTN DOT N/A         44  44  100 CALM    N/A
#HARDMAN 10S    N/A         44  39  82  W1      30.04S
#HEPPNER 15SE   N/A         44  41  89  W2      29.90R
#LADD CYN SMT   N/A         50  45  83  NW8     N/A
#LADD CREEK ODOTN/A         50  49  96  NE8     N/A
#LONG CREEK HS  N/A         50  48  93  NW8     29.94R
#N POWDER DOT   N/A         51  51  100 NE7     N/A
#PIKES PEAK     N/A         48  43  83  SW29G40 27.99S WCI 39
#TOLLGATE       N/A         41  40  96  SW8     29.89R
#TROY SCHOOL    N/A         62  47  58  W3      29.67R
#UKIAH          N/A         51  41  68  W6      29.91R
#WESTON 4E      N/A         47  43  86  S7      29.83R
$$

ORZ505-301010-
JOHN DAY BASIN

CITY            SKY/WX      TMP DP  RH  WIND    PRES   REMARKS
JOHN DAY        PTCLDY      52  46  80  W10     29.99S
#JOHN DAY KJDY  N/A         55  49  80  CALM    30.15R
#DAYVILLE SCHOOLN/A          0  -78  1  CALM    29.96R
#MONUMENT HS    N/A         58  41  53  NW5     29.98R
#MT. VERNON 5SE N/A         50  44  80  CALM    29.95R
#WINLOCK        N/A         50  38  63  N3      30.08R
$$

ORZ506-301010-
OCHOCO AND JOHN DAY HIGHLANDS

CITY            SKY/WX      TMP DP  RH  WIND    PRES   REMARKS
#BUCK CREEK DOT N/A         49  49  100 W10     N/A
#HORSE RIDGE DO N/A         46  37  71  NW2     N/A
#KEYES SMT DOT  N/A         45  40  82  NW10    N/A
#PAULINA SCHOOL N/A         50  38  63  W6      30.03R
#PINE MTN OBS   N/A         36  32  85  W8      N/A
#PRAIRIE CITY   N/A         49  48  96  CALM    30.00S
#SENECA         N/A         49  N/A N/A W2      N/A
#SENECA 9NW     N/A         46  44  93  CALM    29.83S
$$

ORZ049-301010-
GRANDE RONDE VALLEY

CITY            SKY/WX      TMP DP  RH  WIND    PRES   REMARKS
LA GRANDE       MOCLDY      52  39  61  NW16    29.94R
#COVE           N/A         52  52  100 N1      29.88R
#COVE SCHOOL    N/A         52  50  93  CALM    29.94R
#COVE 6NW       N/A         52  46  80  W14     29.93R
#ELGIN 3N       N/A         52  40  63  W3      29.67R
#ELGIN 1E       N/A         52  44  74  W5      N/A
#IMBLER SCHOOL  N/A         51  44  77  N2      29.93R
#LADD CYN DOT   N/A         52  49  89  N6      N/A
#LA GRANDE ELEM N/A         51  46  83  CALM    29.94R
#UNION 1S       N/A         53  51  93  CALM    29.79R
$$

ORZ050-301010-
WALLOWA COUNTY

CITY            SKY/WX      TMP DP  RH  WIND    PRES   REMARKS
JOSEPH AIRPORT  LGT RAIN    48  48  100 CALM    29.94S
#ENTERPRISE AP  N/A         50  46  86  CALM    29.88S
#ENTERPRISE HS  N/A         50  48  93  CALM    29.95S
#IMNAHA SCHOOL  N/A         56  51  83  CALM    29.86R
#IMNAHA 10S     N/A         50  48  93  CALM    29.91R
#JOSEPH 3N      N/A         48  45  89  CALM    29.96R
#JOSEPH 3W      N/A         47  46  96  CALM    29.80S
#LOSTINE        N/A         50  45  83  W2      29.67R
#MT HOWARD 8000 N/A         36  35  96  W5      30.00F
#PROMISE 1S     N/A         51  42  71  E10     29.94R
#SHEEP RDG 7000 N/A         38  36  92  CALM    29.86R
#WALLOWA SCHOOL N/A         52  46  80  W2      30.77R



$$



USA.gov is the U.S. government's official web portal to all federal, state and local government web resources and services.